• In Hungary
  • List of Countries
  • For 7 days
  • Water Temperature
  • Satellite Maps
  • Weather Map
  • News
  • Weather Widgets
  • user-avatar
    Login

    Hourly Weather Agra

    Today, 19 January, Friday

    Time Temperature Precipitation Wind Pressure Humidity
    00:00 +16°C° 0 mm 1 mps 746 mmHg 60%
    01:00 +16°C° 0 mm 1 mps 746 mmHg 61%
    02:00 +15°C° 0 mm 1 mps 745 mmHg 61%
    03:00 +15°C° 0 mm 1 mps 746 mmHg 62%
    04:00 +15°C° 0 mm 1 mps 746 mmHg 62%
    05:00 +14°C° 0 mm 1 mps 745 mmHg 62%
    06:00 +15°C° 0 mm 1 mps 746 mmHg 62%
    07:00 +15°C° 0 mm 1 mps 746 mmHg 62%
    08:00 +16°C° 0 mm 1 mps 747 mmHg 61%
    09:00 +20°C° 0 mm 1 mps 747 mmHg 56%
    10:00 +22°C° 0 mm 1 mps 747 mmHg 50%
    11:00 +23°C° 0 mm 0 mps 747 mmHg 44%
    12:00 +26°C° 0 mm 1 mps 747 mmHg 41%
    13:00 +27°C° 0 mm 1 mps 746 mmHg 39%
    14:00 +27°C° 0 mm 2 mps 746 mmHg 36%
    15:00 +26°C° 0 mm 2 mps 746 mmHg 41%
    16:00 +24°C° 0 mm 2 mps 745 mmHg 46%
    17:00 +23°C° 0 mm 2 mps 745 mmHg 51%
    18:00 +21°C° 0 mm 2 mps 746 mmHg 53%
    19:00 +19°C° 0 mm 2 mps 746 mmHg 56%
    20:00 +18°C° 0 mm 2 mps 746 mmHg 58%
    21:00 +18°C° 0 mm 2 mps 746 mmHg 59%
    22:00 +17°C° 0 mm 2 mps 746 mmHg 60%
    23:00 +16°C° 0 mm 2 mps 746 mmHg 61%

    Tomorrow, 20 January, Saturday

    Time Temperature Precipitation Wind Pressure Humidity
    00:00 +16°C° 0 mm 2 mps 746 mmHg 62%
    01:00 +15°C° 0 mm 2 mps 746 mmHg 63%
    02:00 +15°C° 0 mm 2 mps 746 mmHg 64%
    03:00 +15°C° 0 mm 2 mps 745 mmHg 65%
    04:00 +14°C° 0 mm 2 mps 745 mmHg 66%
    05:00 +14°C° 0 mm 2 mps 745 mmHg 67%
    06:00 +14°C° 0 mm 2 mps 746 mmHg 66%
    07:00 +14°C° 0 mm 2 mps 746 mmHg 64%
    08:00 +14°C° 0 mm 3 mps 746 mmHg 62%
    09:00 +17°C° 0 mm 3 mps 747 mmHg 53%
    10:00 +19°C° 0 mm 3 mps 747 mmHg 43%
    11:00 +22°C° 0 mm 4 mps 747 mmHg 33%
    12:00 +23°C° 0 mm 4 mps 746 mmHg 31%
    13:00 +25°C° 0 mm 4 mps 745 mmHg 29%
    14:00 +25°C° 0 mm 4 mps 745 mmHg 27%
    15:00 +24°C° 0 mm 3 mps 744 mmHg 31%
    16:00 +21°C° 0 mm 2 mps 744 mmHg 36%
    17:00 +19°C° 0 mm 2 mps 744 mmHg 41%
    18:00 +18°C° 0 mm 2 mps 744 mmHg 41%
    19:00 +17°C° 0 mm 2 mps 744 mmHg 41%
    20:00 +16°C° 0 mm 1 mps 745 mmHg 40%
    21:00 +15°C° 0 mm 1 mps 745 mmHg 40%
    22:00 +15°C° 0 mm 2 mps 745 mmHg 39%
    23:00 +14°C° 0 mm 2 mps 745 mmHg 38%

    Day after tomorrow, 21 January, Sunday

    Time Temperature Precipitation Wind Pressure Humidity
    00:00 +14°C° 0 mm 2 mps 745 mmHg 37%
    01:00 +13°C° 0 mm 2 mps 744 mmHg 36%
    02:00 +13°C° 0 mm 2 mps 744 mmHg 34%
    03:00 +12°C° 0 mm 2 mps 744 mmHg 33%
    04:00 +12°C° 0 mm 2 mps 744 mmHg 31%
    05:00 +10°C° 0 mm 2 mps 744 mmHg 29%
    06:00 +12°C° 0 mm 2 mps 745 mmHg 32%
    07:00 +12°C° 0 mm 1 mps 745 mmHg 34%
    08:00 +13°C° 0 mm 1 mps 746 mmHg 36%
    09:00 +16°C° 0 mm 1 mps 746 mmHg 33%
    10:00 +18°C° 0 mm 2 mps 746 mmHg 29%
    11:00 +21°C° 0 mm 2 mps 747 mmHg 25%
    12:00 +23°C° 0 mm 2 mps 746 mmHg 24%
    13:00 +24°C° 0 mm 1 mps 745 mmHg 23%
    14:00 +25°C° 0 mm 1 mps 744 mmHg 22%
    15:00 +23°C° 0 mm 1 mps 744 mmHg 27%
    16:00 +22°C° 0 mm 1 mps 744 mmHg 31%
    17:00 +20°C° 0 mm 1 mps 744 mmHg 36%
    18:00 +19°C° 0 mm 1 mps 744 mmHg 36%
    19:00 +16°C° 0 mm 1 mps 744 mmHg 37%
    20:00 +15°C° 0 mm 1 mps 745 mmHg 37%
    21:00 +14°C° 0 mm 0 mps 745 mmHg 38%
    22:00 +13°C° 0 mm 0 mps 745 mmHg 39%
    23:00 +13°C° 0 mm 0 mps 745 mmHg 40%

    22 January, Monday

    Time Temperature Precipitation Wind Pressure Humidity
    00:00 +12°C° 0 mm 0 mps 745 mmHg 40%
    01:00 +12°C° 0 mm 0 mps 744 mmHg 41%
    02:00 +11°C° 0 mm 0 mps 744 mmHg 41%
    03:00 +11°C° 0 mm 0 mps 744 mmHg 42%
    04:00 +11°C° 0 mm 0 mps 744 mmHg 43%
    05:00 +10°C° 0 mm 0 mps 744 mmHg 43%
    06:00 +11°C° 0 mm 0 mps 744 mmHg 45%
    07:00 +12°C° 0 mm 0 mps 745 mmHg 46%
    08:00 +13°C° 0 mm 0 mps 745 mmHg 48%
    09:00 +16°C° 0 mm 0 mps 745 mmHg 42%
    10:00 +20°C° 0 mm 1 mps 745 mmHg 37%
    11:00 +22°C° 0 mm 1 mps 745 mmHg 32%
    12:00 +23°C° 0 mm 1 mps 745 mmHg 30%
    13:00 +24°C° 0 mm 1 mps 744 mmHg 28%
    14:00 +25°C° 0 mm 1 mps 743 mmHg 26%
    15:00 +24°C° 0 mm 1 mps 742 mmHg 31%
    16:00 +22°C° 0 mm 1 mps 742 mmHg 35%
    17:00 +20°C° 0 mm 1 mps 742 mmHg 39%
    18:00 +19°C° 0 mm 1 mps 742 mmHg 39%
    19:00 +18°C° 0 mm 1 mps 743 mmHg 39%
    20:00 +16°C° 0 mm 1 mps 744 mmHg 39%
    21:00 +16°C° 0 mm 2 mps 744 mmHg 40%
    22:00 +15°C° 0 mm 2 mps 744 mmHg 40%
    23:00 +15°C° 0 mm 2 mps 744 mmHg 41%

    23 January, Tuesday

    Time Temperature Precipitation Wind Pressure Humidity
    00:00 +15°C° 0 mm 2 mps 743 mmHg 41%
    01:00 +14°C° 0 mm 2 mps 743 mmHg 42%
    02:00 +13°C° 0 mm 3 mps 743 mmHg 42%
    03:00 +14°C° 0 mm 2 mps 742 mmHg 43%
    04:00 +13°C° 0 mm 2 mps 742 mmHg 44%
    05:00 +13°C° 0 mm 2 mps 742 mmHg 45%
    06:00 +13°C° 0 mm 2 mps 743 mmHg 46%
    07:00 +13°C° 0 mm 3 mps 743 mmHg 48%
    08:00 +13°C° 0 mm 3 mps 744 mmHg 50%
    09:00 +17°C° 0 mm 3 mps 744 mmHg 46%
    10:00 +19°C° 0 mm 4 mps 743 mmHg 43%
    11:00 +21°C° 0 mm 4 mps 743 mmHg 39%
    12:00 +22°C° 0.1 mm 3 mps 742 mmHg 39%
    13:00 +23°C° 0.1 mm 2 mps 742 mmHg 38%
    14:00 +24°C° 0.1 mm 1 mps 741 mmHg 38%
    15:00 +22°C° 0.5 mm 1 mps 741 mmHg 48%
    16:00 +19°C° 0.5 mm 2 mps 741 mmHg 58%
    17:00 +18°C° 0.5 mm 3 mps 740 mmHg 68%
    18:00 +17°C° 0.4 mm 3 mps 741 mmHg 72%
    19:00 +16°C° 0.4 mm 2 mps 742 mmHg 76%
    20:00 +15°C° 0.4 mm 2 mps 743 mmHg 80%
    21:00 +15°C° 0.1 mm 2 mps 743 mmHg 82%
    22:00 +14°C° 0.1 mm 2 mps 743 mmHg 84%
    23:00 +14°C° 0.1 mm 2 mps 743 mmHg 85%

    24 January, Wednesday

    Time Temperature Precipitation Wind Pressure Humidity
    00:00 +13°C° 0 mm 2 mps 743 mmHg 86%
    01:00 +13°C° 0 mm 1 mps 743 mmHg 87%
    02:00 +12°C° 0 mm 1 mps 742 mmHg 88%
    03:00 +12°C° 0 mm 1 mps 743 mmHg 88%
    04:00 +12°C° 0 mm 1 mps 743 mmHg 88%
    05:00 +11°C° 0 mm 1 mps 743 mmHg 88%
    06:00 +12°C° 0 mm 1 mps 744 mmHg 86%
    07:00 +13°C° 0 mm 1 mps 744 mmHg 84%
    08:00 +13°C° 0 mm 1 mps 745 mmHg 83%
    09:00 +15°C° 0 mm 1 mps 745 mmHg 75%
    10:00 +17°C° 0 mm 2 mps 745 mmHg 67%
    11:00 +19°C° 0 mm 2 mps 745 mmHg 59%
    12:00 +20°C° 0 mm 2 mps 744 mmHg 56%
    13:00 +21°C° 0 mm 2 mps 744 mmHg 53%
    14:00 +23°C° 0 mm 2 mps 743 mmHg 51%
    15:00 +21°C° 0 mm 2 mps 743 mmHg 55%
    16:00 +20°C° 0 mm 2 mps 743 mmHg 59%
    17:00 +19°C° 0 mm 2 mps 743 mmHg 63%
    18:00 +18°C° 0 mm 2 mps 743 mmHg 66%
    19:00 +17°C° 0 mm 2 mps 743 mmHg 68%
    20:00 +16°C° 0 mm 1 mps 744 mmHg 70%
    21:00 +15°C° 0 mm 2 mps 744 mmHg 70%
    22:00 +15°C° 0 mm 2 mps 744 mmHg 69%
    23:00 +14°C° 0 mm 2 mps 744 mmHg 68%
    Show more